CZ-6A DEB, 61483

Orbit data source: Space-Track

CZ-6A DEB, 61483 is space debris in LEO originally from a launch on Tue, 06 Aug 2024 UTC launched from the Taiyaun Space Center, China (TSC). Debris objects in space refer to the collection of defunct objects orbiting the Earth. Examples of debris include non-operational satellites, rocket bodies, and fragments generated from explosions, collisions, or faulty payload assembly.

Loading next visibility...
Identifier
61483, 2024-140AAR
Orbit
LEO
Country
Flag of CNCN / PRC
Related business
Manufacturer
SAST
Mission
Spacecraft
Bus & Motor
Unknown
Mass
Unknown
Launch date (UTC)
2024-08-06 (2 years ago)
Launch vehicle
Unknown
Launch site
Taiyaun Space Center, China (TSC)
Object type
Payload
Rocket body
Debris
Shape & HBR
Unknown shape, 1.1 m
Radar Cross Section
Medium (>0.1 m² and <1 m²)

Expand to show TLE details & history
Last TLE update: 19 hours ago

TLE from 19 hours ago
0 CZ-6A DEB
1 61483U 24140AAR 26171.19743228  .00001831  00000-0  70187-3 0  9995
2 61483  88.6474 245.0154 0068320  86.9937 273.9073 14.28866783 93021
Epoch: 2026-06-20T04:44Z
TLE epoch observation values (Epoch: 2026-06-20T04:44:18.148Z)
Latitude
-0.00007°
Longitude
-94.47573°
Altitude
795.579 km
Speed
7.457 km/s
True Right ascension
16h 20m 03s
True Declination
0° 00' 00"
Sunlit
Object was in full shadow at epoch
Visualization orbit readout
Latitude
Unknown
Longitude
Unknown
Altitude
Unknown
Speed
Unknown
Apparent Right ascension
Unknown
Apparent Declination
Unknown
Sunlit
N/A
Visualization observer readout
Local Sidereal Time
10:18:30
Azimuth
Unknown
Elevation
Unknown
Doppler factor
Unknown
Orbital elements
Apogee altitude
841.451 km
Perigee altitude
743.472 km
Semi-major axis
7,170.599 km
Eccentricity
0.00683
Inclination
88.6474°
RAAN
245.0154°
Arg. of periapsis
86.9937°
True anomaly
273.1258°
Mean anomaly
273.9073°
Eccentric anomaly
273.51659°
Mean motion
3.57446 °/min
Orbital period
100.71 mins
BSTAR
0.00070187
Loading maneuver chart data...
Computing Atmospheric mass density...
Loading historical data...
Loading historical data...
Loading historical data...
Loading historical data...
Loading historical data...
Loading historical data...
Loading historical data...

Documentation

Showing up to 5 results
|